Time,TemperatureF,DewpointF,PressureIn,WindDirection,WindDirectionDegrees,WindSpeedMPH,WindSpeedGustMPH,Humidity,HourlyPrecipIn,Conditions,Clouds,dailyrainin,SolarRadiationWatts/m^2,SoftwareType,DateUTC
2013-03-06 00:00:00,26.9,21.8,30.44,WNW,292,0.0,0.0,81,0.00,CLR,,0.00,0.0,WeatherDisplay:10.37,2013-03-06 06:00:00,
2013-03-06 00:05:00,26.7,21.7,30.44,WNW,292,1.2,0.0,81,0.00,CLR,,0.00,0.0,WeatherDisplay:10.37,2013-03-06 06:05:00,
2013-03-06 00:10:00,26.5,22.0,30.45,WNW,292,1.2,0.0,83,0.00,CLR,,0.00,0.0,WeatherDisplay:10.37,2013-03-06 06:10:00,
2013-03-06 00:15:00,26.4,21.9,30.45,WNW,292,0.0,0.0,83,0.00,CLR,,0.00,0.0,WeatherDisplay:10.37,2013-03-06 06:15:00,
2013-03-06 00:20:00,26.2,22.0,30.45,WNW,292,1.2,1.2,84,0.00,CLR,,0.00,0.0,WeatherDisplay:10.37,2013-03-06 06:20:00,
2013-03-06 00:25:00,26.1,21.9,30.45,WNW,292,0.0,0.0,84,0.00,CLR,,0.00,0.0,WeatherDisplay:10.37,2013-03-06 06:25:00,
2013-03-06 00:30:00,26.1,21.9,30.45,WNW,292,1.2,0.0,84,0.00,CLR,,0.00,0.0,WeatherDisplay:10.37,2013-03-06 06:30:00,
2013-03-06 00:35:00,26.0,21.8,30.45,WNW,292,0.0,0.0,84,0.00,CLR,,0.00,0.0,WeatherDisplay:10.37,2013-03-06 06:35:00,
2013-03-06 00:40:00,26.0,21.8,30.45,WNW,292,1.2,1.2,84,0.00,CLR,,0.00,0.0,WeatherDisplay:10.37,2013-03-06 06:40:00,
2013-03-06 00:45:00,25.9,21.7,30.45,WNW,292,2.3,2.3,84,0.00,CLR,,0.00,0.0,WeatherDisplay:10.37,2013-03-06 06:45:00,
2013-03-06 00:50:00,25.8,21.9,30.46,WNW,292,0.0,0.0,85,0.00,CLR,,0.00,0.0,WeatherDisplay:10.37,2013-03-06 06:50:00,
2013-03-06 00:55:00,25.7,21.8,30.46,WNW,292,0.0,0.0,85,0.00,CLR,,0.00,0.0,WeatherDisplay:10.37,2013-03-06 06:55:00,
2013-03-06 01:00:00,25.6,21.7,30.46,WNW,292,1.2,1.2,85,0.00,CLR,,0.00,0.0,WeatherDisplay:10.37,2013-03-06 07:00:00,
2013-03-06 01:05:00,25.5,21.6,30.46,WNW,292,1.2,1.2,85,0.00,CLR,,0.00,0.0,WeatherDisplay:10.37,2013-03-06 07:05:00,
2013-03-06 01:10:00,25.4,21.5,30.47,WNW,292,2.3,2.3,85,0.00,CLR,,0.00,0.0,WeatherDisplay:10.37,2013-03-06 07:10:00,
2013-03-06 01:15:00,25.3,21.7,30.46,WNW,292,2.3,2.3,86,0.00,CLR,,0.00,0.0,WeatherDisplay:10.37,2013-03-06 07:15:00,
2013-03-06 01:20:00,25.2,21.6,30.47,WNW,292,3.5,3.5,86,0.00,CLR,,0.00,0.0,WeatherDisplay:10.37,2013-03-06 07:20:00,
2013-03-06 01:25:00,25.1,21.5,30.47,WNW,292,2.3,2.3,86,0.00,CLR,,0.00,0.0,WeatherDisplay:10.37,2013-03-06 07:25:00,
2013-03-06 01:30:00,25.1,21.5,30.46,WNW,294,2.3,2.3,86,0.00,CLR,,0.00,0.0,WeatherDisplay:10.37,2013-03-06 07:30:00,
2013-03-06 01:35:00,25.0,21.4,30.47,WNW,294,1.2,1.2,86,0.00,CLR,,0.00,0.0,WeatherDisplay:10.37,2013-03-06 07:35:00,
2013-03-06 01:40:00,24.8,21.2,30.47,WNW,294,0.0,0.0,86,0.00,CLR,,0.00,0.0,WeatherDisplay:10.37,2013-03-06 07:40:00,
2013-03-06 01:45:00,24.7,21.1,30.47,WNW,294,0.0,0.0,86,0.00,CLR,,0.00,0.0,WeatherDisplay:10.37,2013-03-06 07:45:00,
2013-03-06 01:50:00,24.5,20.9,30.47,WNW,294,0.0,0.0,86,0.00,CLR,,0.00,0.0,WeatherDisplay:10.37,2013-03-06 07:50:00,
2013-03-06 01:55:00,24.4,21.1,30.47,WNW,294,2.3,2.3,87,0.00,CLR,,0.00,0.0,WeatherDisplay:10.37,2013-03-06 07:55:00,
2013-03-06 02:00:00,24.3,21.0,30.47,WNW,294,0.0,0.0,87,0.00,CLR,,0.00,0.0,WeatherDisplay:10.37,2013-03-06 08:00:00,
2013-03-06 02:05:00,24.2,20.6,30.47,WNW,294,2.3,2.3,86,0.00,CLR,,0.00,0.0,WeatherDisplay:10.37,2013-03-06 08:05:00,
2013-03-06 02:10:00,24.0,20.7,30.47,WNW,294,0.0,0.0,87,0.00,CLR,,0.00,0.0,WeatherDisplay:10.37,2013-03-06 08:10:00,
2013-03-06 02:15:00,24.0,21.0,30.47,WNW,294,0.0,0.0,88,0.00,CLR,,0.00,0.0,WeatherDisplay:10.37,2013-03-06 08:15:00,
2013-03-06 02:20:00,24.0,21.0,30.47,WNW,294,1.2,1.2,88,0.00,CLR,,0.00,0.0,WeatherDisplay:10.37,2013-03-06 08:20:00,
2013-03-06 02:25:00,24.0,21.0,30.47,WNW,294,0.0,0.0,88,0.00,CLR,,0.00,0.0,WeatherDisplay:10.37,2013-03-06 08:25:00,
2013-03-06 02:30:00,23.9,20.6,30.47,WNW,294,1.2,1.2,87,0.00,CLR,,0.00,0.0,WeatherDisplay:10.37,2013-03-06 08:30:00,
2013-03-06 02:35:00,23.8,20.8,30.47,WNW,294,0.0,0.0,88,0.00,CLR,,0.00,0.0,WeatherDisplay:10.37,2013-03-06 08:35:00,
2013-03-06 02:40:00,23.7,20.7,30.47,WNW,294,0.0,0.0,88,0.00,CLR,,0.00,0.0,WeatherDisplay:10.37,2013-03-06 08:40:00,
2013-03-06 02:45:00,23.6,20.6,30.47,WNW,294,0.0,0.0,88,0.00,CLR,,0.00,0.0,WeatherDisplay:10.37,2013-03-06 08:45:00,
2013-03-06 02:50:00,23.5,20.5,30.46,WNW,294,1.2,0.0,88,0.00,CLR,,0.00,0.0,WeatherDisplay:10.37,2013-03-06 08:50:00,
2013-03-06 02:55:00,23.4,20.4,30.47,WNW,294,1.2,1.2,88,0.00,CLR,,0.00,0.0,WeatherDisplay:10.37,2013-03-06 08:55:00,
2013-03-06 03:00:00,23.3,20.3,30.47,WNW,294,1.2,1.2,88,0.00,CLR,,0.00,0.0,WeatherDisplay:10.37,2013-03-06 09:00:00,
2013-03-06 03:05:00,23.3,20.3,30.46,WNW,294,2.3,2.3,88,0.00,CLR,,0.00,0.0,WeatherDisplay:10.37,2013-03-06 09:05:00,
2013-03-06 03:10:00,23.2,20.2,30.47,WNW,294,0.0,0.0,88,0.00,CLR,,0.00,0.0,WeatherDisplay:10.37,2013-03-06 09:10:00,
2013-03-06 03:15:00,23.1,20.1,30.47,WNW,294,0.0,0.0,88,0.00,CLR,,0.00,0.0,WeatherDisplay:10.37,2013-03-06 09:15:00,
2013-03-06 03:20:00,23.0,20.0,30.46,WNW,294,0.0,0.0,88,0.00,CLR,,0.00,0.0,WeatherDisplay:10.37,2013-03-06 09:20:00,
2013-03-06 03:25:00,22.8,19.8,30.46,WNW,294,2.3,2.3,88,0.00,CLR,,0.00,0.0,WeatherDisplay:10.37,2013-03-06 09:25:00,
2013-03-06 03:30:00,22.7,19.7,30.46,WNW,294,1.2,1.2,88,0.00,CLR,,0.00,0.0,WeatherDisplay:10.37,2013-03-06 09:30:00,
2013-03-06 03:35:00,22.6,19.8,30.46,WNW,294,2.3,2.3,89,0.00,CLR,,0.00,0.0,WeatherDisplay:10.37,2013-03-06 09:35:00,
2013-03-06 03:40:00,22.5,19.7,30.46,WNW,294,0.0,0.0,89,0.00,CLR,,0.00,0.0,WeatherDisplay:10.37,2013-03-06 09:40:00,
2013-03-06 03:45:00,22.4,19.6,30.45,WNW,294,1.2,1.2,89,0.00,CLR,,0.00,0.0,WeatherDisplay:10.37,2013-03-06 09:45:00,
2013-03-06 03:50:00,22.3,19.6,30.45,WNW,294,2.3,2.3,89,0.00,CLR,,0.00,0.0,WeatherDisplay:10.37,2013-03-06 09:50:00,
2013-03-06 03:55:00,22.2,19.5,30.45,WNW,294,1.2,1.2,89,0.00,CLR,,0.00,0.0,WeatherDisplay:10.37,2013-03-06 09:55:00,
2013-03-06 04:00:00,22.2,19.7,30.46,WNW,294,1.2,1.2,90,0.00,CLR,,0.00,0.0,WeatherDisplay:10.37,2013-03-06 10:00:00,
2013-03-06 04:05:00,22.3,19.8,30.46,WNW,294,2.3,2.3,90,0.00,CLR,,0.00,0.0,WeatherDisplay:10.37,2013-03-06 10:05:00,
2013-03-06 04:10:00,22.4,19.6,30.46,WNW,294,0.0,0.0,89,0.00,CLR,,0.00,0.0,WeatherDisplay:10.37,2013-03-06 10:10:00,
2013-03-06 04:15:00,22.4,19.6,30.46,NNW,328,3.0,3.0,89,0.00,CLR,,0.00,0.0,WeatherDisplay:10.37,2013-03-06 10:15:00,
2013-03-06 04:20:00,22.4,19.6,30.45,North,360,2.3,2.3,89,0.00,CLR,,0.00,0.0,WeatherDisplay:10.37,2013-03-06 10:20:00,
2013-03-06 04:25:00,22.4,19.6,30.45,North,5,3.5,3.5,89,0.00,CLR,,0.00,0.0,WeatherDisplay:10.37,2013-03-06 10:25:00,
2013-03-06 04:30:00,22.3,19.6,30.45,North,5,2.3,2.3,89,0.00,CLR,,0.00,0.0,WeatherDisplay:10.37,2013-03-06 10:30:00,
2013-03-06 04:35:00,22.3,19.6,30.45,North,5,1.2,1.2,89,0.00,CLR,,0.00,0.0,WeatherDisplay:10.37,2013-03-06 10:35:00,
2013-03-06 04:40:00,22.3,19.6,30.45,North,5,2.3,2.3,89,0.00,CLR,,0.00,0.0,WeatherDisplay:10.37,2013-03-06 10:40:00,
2013-03-06 04:45:00,22.3,19.6,30.45,North,5,1.2,1.2,89,0.00,CLR,,0.00,0.0,WeatherDisplay:10.37,2013-03-06 10:45:00,
2013-03-06 04:50:00,22.4,19.6,30.45,North,5,0.0,0.0,89,0.00,CLR,,0.00,0.0,WeatherDisplay:10.37,2013-03-06 10:50:00,
2013-03-06 04:55:00,22.6,19.6,30.46,North,5,0.0,0.0,88,0.00,CLR,,0.00,0.0,WeatherDisplay:10.37,2013-03-06 10:55:00,
2013-03-06 05:00:00,22.7,19.7,30.46,North,5,0.0,0.0,88,0.00,CLR,,0.00,0.0,WeatherDisplay:10.37,2013-03-06 11:00:00,
2013-03-06 05:05:00,22.6,19.3,30.46,North,5,0.0,0.0,87,0.00,CLR,,0.00,0.0,WeatherDisplay:10.37,2013-03-06 11:05:00,
2013-03-06 05:10:00,22.5,19.2,30.46,North,5,0.0,0.0,87,0.00,CLR,,0.00,0.0,WeatherDisplay:10.37,2013-03-06 11:10:00,
2013-03-06 05:15:00,22.4,19.1,30.46,North,5,0.0,0.0,87,0.00,CLR,,0.00,0.0,WeatherDisplay:10.37,2013-03-06 11:15:00,
2013-03-06 05:20:00,22.2,18.9,30.45,North,5,2.3,2.3,87,0.00,CLR,,0.00,0.0,WeatherDisplay:10.37,2013-03-06 11:20:00,
2013-03-06 05:25:00,22.1,18.8,30.45,North,5,2.3,2.3,87,0.00,CLR,,0.00,0.0,WeatherDisplay:10.37,2013-03-06 11:25:00,
2013-03-06 05:30:00,22.1,19.1,30.45,ENE,57,3.5,3.5,88,0.00,CLR,,0.00,0.0,WeatherDisplay:10.37,2013-03-06 11:30:00,
2013-03-06 05:35:00,22.1,19.1,30.44,NE,39,4.6,4.6,88,0.00,CLR,,0.00,0.0,WeatherDisplay:10.37,2013-03-06 11:35:00,
2013-03-06 05:40:00,22.4,19.4,30.45,NNE,14,3.5,3.5,88,0.00,CLR,,0.00,0.0,WeatherDisplay:10.37,2013-03-06 11:40:00,
2013-03-06 05:45:00,22.7,19.4,30.45,NE,53,3.5,3.5,87,0.00,CLR,,0.00,0.0,WeatherDisplay:10.37,2013-03-06 11:45:00,
2013-03-06 05:50:00,23.0,19.7,30.45,ENE,58,3.5,3.5,87,0.00,CLR,,0.00,0.0,WeatherDisplay:10.37,2013-03-06 11:50:00,
2013-03-06 05:55:00,23.4,19.8,30.46,NE,46,2.3,2.3,86,0.00,CLR,,0.00,0.0,WeatherDisplay:10.37,2013-03-06 11:55:00,
2013-03-06 06:00:00,23.8,19.9,30.45,ENE,59,3.5,3.5,85,0.00,CLR,,0.00,0.0,WeatherDisplay:10.37,2013-03-06 12:00:00,
2013-03-06 06:05:00,24.2,19.8,30.45,ENE,60,5.8,5.8,83,0.00,CLR,,0.00,0.0,WeatherDisplay:10.37,2013-03-06 12:05:00,
2013-03-06 06:10:00,24.5,19.8,30.46,ENE,77,3.5,3.5,82,0.00,CLR,,0.00,0.0,WeatherDisplay:10.37,2013-03-06 12:10:00,
2013-03-06 06:15:00,24.6,19.9,30.46,ENE,77,1.0,0.0,82,0.00,CLR,,0.00,0.0,WeatherDisplay:10.37,2013-03-06 12:15:00,
2013-03-06 06:20:00,24.5,19.5,30.46,ENE,57,5.0,5.0,81,0.00,CLR,,0.00,0.0,WeatherDisplay:10.37,2013-03-06 12:20:00,
2013-03-06 06:25:00,24.5,19.5,30.46,NNE,31,2.3,2.3,81,0.00,CLR,,0.00,0.0,WeatherDisplay:10.37,2013-03-06 12:25:00,
2013-03-06 06:30:00,24.5,19.5,30.46,ENE,63,3.5,3.5,81,0.00,CLR,,0.00,0.0,WeatherDisplay:10.37,2013-03-06 12:30:00,
2013-03-06 06:35:00,24.5,19.2,30.46,NE,35,8.1,8.1,80,0.00,CLR,,0.00,0.0,WeatherDisplay:10.37,2013-03-06 12:35:00,
2013-03-06 06:40:00,24.6,19.3,30.46,ENE,65,3.5,3.5,80,0.00,CLR,,0.00,0.0,WeatherDisplay:10.37,2013-03-06 12:40:00,
2013-03-06 06:45:00,24.6,19.3,30.46,ENE,65,1.2,1.2,80,0.00,CLR,,0.00,0.0,WeatherDisplay:10.37,2013-03-06 12:45:00,
2013-03-06 06:50:00,24.5,18.9,30.47,NE,39,3.5,3.5,79,0.00,CLR,,0.00,0.0,WeatherDisplay:10.37,2013-03-06 12:50:00,
2013-03-06 06:55:00,24.4,18.8,30.47,ENE,65,5.8,5.8,79,0.00,OVC,,0.00,5.0,WeatherDisplay:10.37,2013-03-06 12:55:00,
2013-03-06 07:00:00,24.4,18.8,30.46,NE,49,3.5,3.5,79,0.00,CLR,,0.00,7.0,WeatherDisplay:10.37,2013-03-06 13:00:00,
2013-03-06 07:05:00,24.4,18.8,30.47,NE,46,3.5,3.5,79,0.00,SCT,,0.00,11.0,WeatherDisplay:10.37,2013-03-06 13:05:00,
2013-03-06 07:10:00,24.3,18.7,30.47,NE,46,0.0,0.0,79,0.00,SCT,,0.00,14.0,WeatherDisplay:10.37,2013-03-06 13:10:00,
2013-03-06 07:15:00,24.2,18.6,30.47,NE,46,0.0,0.0,79,0.00,BKN,,0.00,19.0,WeatherDisplay:10.37,2013-03-06 13:15:00,
2013-03-06 07:20:00,24.1,18.5,30.47,NE,46,1.0,1.0,79,0.00,BKN,,0.00,23.0,WeatherDisplay:10.37,2013-03-06 13:20:00,
2013-03-06 07:25:00,24.1,18.8,30.47,NE,46,2.3,2.3,80,0.00,BKN,,0.00,26.0,WeatherDisplay:10.37,2013-03-06 13:25:00,
2013-03-06 07:30:00,24.1,18.8,30.46,NE,55,2.3,2.3,80,0.00,BKN,,0.00,28.0,WeatherDisplay:10.37,2013-03-06 13:30:00,
2013-03-06 07:35:00,24.3,19.0,30.46,NE,55,2.3,2.3,80,0.00,BKN,,0.00,30.0,WeatherDisplay:10.37,2013-03-06 13:35:00,
2013-03-06 07:40:00,24.6,19.0,30.47,ENE,75,3.5,3.5,79,0.00,BKN,,0.00,33.0,WeatherDisplay:10.37,2013-03-06 13:40:00,
2013-03-06 07:45:00,24.9,19.3,30.47,ENE,76,2.3,2.3,79,0.00,BKN,,0.00,37.0,WeatherDisplay:10.37,2013-03-06 13:45:00,
2013-03-06 07:50:00,25.2,19.3,30.48,ENE,75,1.2,1.2,78,0.00,BKN,,0.00,49.0,WeatherDisplay:10.37,2013-03-06 13:50:00,
2013-03-06 07:55:00,25.5,19.6,30.47,ENE,76,3.0,3.0,78,0.00,BKN,,0.00,46.0,WeatherDisplay:10.37,2013-03-06 13:55:00,
2013-03-06 08:00:00,25.8,19.6,30.48,ESE,109,2.3,2.3,77,0.00,BKN,,0.00,47.0,WeatherDisplay:10.37,2013-03-06 14:00:00,
2013-03-06 08:05:00,26.2,20.0,30.48,East,81,3.5,3.5,77,0.00,SCT,,0.00,123.0,WeatherDisplay:10.37,2013-03-06 14:05:00,
2013-03-06 08:10:00,26.6,19.7,30.48,ENE,71,3.5,3.5,75,0.00,SCT,,0.00,135.0,WeatherDisplay:10.37,2013-03-06 14:10:00,
2013-03-06 08:15:00,27.1,19.9,30.48,ENE,67,3.5,3.5,74,0.00,SCT,,0.00,72.0,WeatherDisplay:10.37,2013-03-06 14:15:00,
2013-03-06 08:20:00,27.5,20.0,30.49,East,79,3.5,3.5,73,0.00,SCT,,0.00,116.0,WeatherDisplay:10.37,2013-03-06 14:20:00,
2013-03-06 08:25:00,27.9,20.0,30.49,ENE,74,2.0,2.0,72,0.00,SCT,,0.00,123.0,WeatherDisplay:10.37,2013-03-06 14:25:00,
2013-03-06 08:30:00,28.4,20.5,30.49,ENE,74,2.3,2.3,72,0.00,SCT,,0.00,160.0,WeatherDisplay:10.37,2013-03-06 14:30:00,
2013-03-06 08:35:00,28.8,20.2,30.49,ESE,107,3.5,3.5,70,0.00,BKN,,0.00,121.0,WeatherDisplay:10.37,2013-03-06 14:35:00,
2013-03-06 08:40:00,28.9,20.0,30.49,East,94,5.8,5.8,69,0.00,BKN,,0.00,49.0,WeatherDisplay:10.37,2013-03-06 14:40:00,
2013-03-06 08:45:00,29.0,20.4,30.49,East,88,2.0,2.0,70,0.00,BKN,,0.00,51.0,WeatherDisplay:10.37,2013-03-06 14:45:00,
2013-03-06 08:50:00,29.1,20.2,30.49,ENE,73,6.9,6.9,69,0.00,BKN,,0.00,118.0,WeatherDisplay:10.37,2013-03-06 14:50:00,
2013-03-06 08:55:00,29.2,20.3,30.49,ENE,63,3.5,3.5,69,0.00,SCT,,0.00,172.0,WeatherDisplay:10.37,2013-03-06 14:55:00,
2013-03-06 09:00:00,29.5,20.6,30.49,NE,43,2.3,2.3,69,0.00,SCT,,0.00,181.0,WeatherDisplay:10.37,2013-03-06 15:00:00,
2013-03-06 09:05:00,29.8,20.5,30.49,NE,52,2.3,2.3,68,0.00,BKN,,0.00,58.0,WeatherDisplay:10.37,2013-03-06 15:05:00,
2013-03-06 09:10:00,29.9,20.6,30.49,East,81,5.8,5.8,68,0.00,BKN,,0.00,60.0,WeatherDisplay:10.37,2013-03-06 15:10:00,
2013-03-06 09:15:00,30.1,20.1,30.49,East,80,3.5,3.5,66,0.00,BKN,,0.00,72.0,WeatherDisplay:10.37,2013-03-06 15:15:00,
2013-03-06 09:20:00,30.3,20.3,30.49,East,90,5.0,5.0,66,0.00,BKN,,0.00,213.0,WeatherDisplay:10.37,2013-03-06 15:20:00,
2013-03-06 09:25:00,30.7,20.3,30.49,East,96,4.6,4.6,65,0.00,BKN,,0.00,288.0,WeatherDisplay:10.37,2013-03-06 15:25:00,
2013-03-06 09:30:00,30.8,20.4,30.49,ENE,76,3.5,3.5,65,0.00,CLR,,0.00,388.0,WeatherDisplay:10.37,2013-03-06 15:30:00,
2013-03-06 09:35:00,31.1,21.1,30.49,SSE,149,3.5,3.5,66,0.00,SCT,,0.00,255.0,WeatherDisplay:10.37,2013-03-06 15:35:00,
2013-03-06 09:40:00,31.6,20.8,30.49,NE,49,3.5,3.5,64,0.00,BKN,,0.00,137.0,WeatherDisplay:10.37,2013-03-06 15:40:00,
2013-03-06 09:45:00,32.0,20.4,30.49,SE,140,4.6,4.6,62,0.00,SCT,,0.00,279.0,WeatherDisplay:10.37,2013-03-06 15:45:00,
2013-03-06 09:50:00,32.6,21.0,30.49,ENE,76,3.5,3.5,62,0.00,CLR,,0.00,417.0,WeatherDisplay:10.37,2013-03-06 15:50:00,
2013-03-06 09:55:00,33.0,21.8,30.49,SSW,193,3.5,3.5,63,0.00,CLR,,0.00,476.0,WeatherDisplay:10.37,2013-03-06 15:55:00,
2013-03-06 10:00:00,33.8,22.1,30.49,SE,136,5.8,5.8,62,0.00,FEW,,0.00,492.0,WeatherDisplay:10.37,2013-03-06 16:00:00,
2013-03-06 10:05:00,34.1,21.7,30.49,ESE,122,4.6,4.6,60,0.00,SCT,,0.00,304.0,WeatherDisplay:10.37,2013-03-06 16:05:00,
2013-03-06 10:10:00,34.4,21.9,30.49,SE,125,4.6,4.6,60,0.00,SCT,,0.00,309.0,WeatherDisplay:10.37,2013-03-06 16:10:00,
2013-03-06 10:15:00,34.9,22.8,30.49,SSE,159,2.3,2.3,61,0.00,FEW,,0.00,431.0,WeatherDisplay:10.37,2013-03-06 16:15:00,
2013-03-06 10:20:00,35.3,22.4,30.49,SE,134,3.5,3.5,59,0.00,FEW,,0.00,527.0,WeatherDisplay:10.37,2013-03-06 16:20:00,
2013-03-06 10:25:00,35.3,22.0,30.49,East,84,2.3,2.3,58,0.00,FEW,,0.00,397.0,WeatherDisplay:10.37,2013-03-06 16:25:00,
2013-03-06 10:30:00,35.4,22.1,30.49,SSE,165,2.3,2.3,58,0.00,FEW,,0.00,478.0,WeatherDisplay:10.37,2013-03-06 16:30:00,
2013-03-06 10:35:00,35.6,22.7,30.48,ESE,109,5.8,5.8,59,0.00,FEW,,0.00,517.0,WeatherDisplay:10.37,2013-03-06 16:35:00,
2013-03-06 10:40:00,35.6,22.7,30.48,SE,126,4.6,4.6,59,0.00,FEW,,0.00,570.0,WeatherDisplay:10.37,2013-03-06 16:40:00,
2013-03-06 10:45:00,35.8,21.6,30.48,ESE,112,5.8,5.8,56,0.00,CLR,,0.00,520.0,WeatherDisplay:10.37,2013-03-06 16:45:00,
2013-03-06 10:50:00,35.8,22.9,30.48,SSE,153,5.8,5.8,59,0.00,CLR,,0.00,527.0,WeatherDisplay:10.37,2013-03-06 16:50:00,
2013-03-06 10:55:00,36.1,22.3,30.48,South,175,3.5,3.5,57,0.00,SCT,,0.00,294.0,WeatherDisplay:10.37,2013-03-06 16:55:00,
2013-03-06 11:00:00,36.5,22.7,30.48,South,184,3.5,3.5,57,0.00,SCT,,0.00,559.0,WeatherDisplay:10.37,2013-03-06 17:00:00,
2013-03-06 11:05:00,37.1,23.7,30.48,East,98,4.6,4.6,58,0.00,CLR,,0.00,647.0,WeatherDisplay:10.37,2013-03-06 17:05:00,
2013-03-06 11:10:00,37.3,23.0,30.48,ENE,74,4.6,4.6,56,0.00,CLR,,0.00,686.0,WeatherDisplay:10.37,2013-03-06 17:10:00,
2013-03-06 11:15:00,37.3,23.9,30.47,ESE,122,4.6,4.6,58,0.00,CLR,,0.00,689.0,WeatherDisplay:10.37,2013-03-06 17:15:00,
2013-03-06 11:20:00,37.8,23.5,30.48,NNE,31,3.5,3.5,56,0.00,CLR,,0.00,696.0,WeatherDisplay:10.37,2013-03-06 17:20:00,
2013-03-06 11:25:00,38.0,24.1,30.47,SSE,147,8.1,8.1,57,0.00,CLR,,0.00,707.0,WeatherDisplay:10.37,2013-03-06 17:25:00,
2013-03-06 11:30:00,38.9,24.1,30.47,SE,135,3.5,3.5,55,0.00,CLR,,0.00,710.0,WeatherDisplay:10.37,2013-03-06 17:30:00,
2013-03-06 11:35:00,39.3,23.6,30.47,East,84,4.6,4.6,53,0.00,CLR,,0.00,721.0,WeatherDisplay:10.37,2013-03-06 17:35:00,
2013-03-06 11:40:00,39.8,24.9,30.47,SSE,155,6.9,6.9,55,0.00,CLR,,0.00,726.0,WeatherDisplay:10.37,2013-03-06 17:40:00,
2013-03-06 11:45:00,40.3,24.5,30.46,SE,140,2.3,2.3,53,0.00,CLR,,0.00,733.0,WeatherDisplay:10.37,2013-03-06 17:45:00,
2013-03-06 11:50:00,40.8,25.4,30.46,SSW,204,3.5,3.5,54,0.00,CLR,,0.00,738.0,WeatherDisplay:10.37,2013-03-06 17:50:00,
2013-03-06 11:55:00,41.4,25.1,30.46,South,185,9.2,9.2,52,0.00,CLR,,0.00,705.0,WeatherDisplay:10.37,2013-03-06 17:55:00,
2013-03-06 12:00:00,41.4,25.1,30.45,SW,225,6.9,6.9,52,0.00,CLR,,0.00,700.0,WeatherDisplay:10.37,2013-03-06 18:00:00,
2013-03-06 12:05:00,41.1,24.3,30.45,SE,128,4.6,4.6,51,0.00,CLR,,0.00,751.0,WeatherDisplay:10.37,2013-03-06 18:05:00,
2013-03-06 12:10:00,41.4,24.6,30.44,South,184,3.5,3.5,51,0.00,CLR,,0.00,715.0,WeatherDisplay:10.37,2013-03-06 18:10:00,
2013-03-06 12:15:00,41.8,25.9,30.44,South,181,4.6,4.6,53,0.00,CLR,,0.00,737.0,WeatherDisplay:10.37,2013-03-06 18:15:00,
2013-03-06 12:20:00,42.1,25.7,30.43,East,99,3.5,3.5,52,0.00,CLR,,0.00,766.0,WeatherDisplay:10.37,2013-03-06 18:20:00,
2013-03-06 12:25:00,42.0,24.7,30.43,East,88,3.5,3.5,50,0.00,FEW,,0.00,606.0,WeatherDisplay:10.37,2013-03-06 18:25:00,
2013-03-06 12:30:00,41.7,24.9,30.43,SSW,192,6.9,6.9,51,0.00,FEW,,0.00,592.0,WeatherDisplay:10.37,2013-03-06 18:30:00,
2013-03-06 12:35:00,42.0,24.2,30.43,SSE,167,3.5,3.5,49,0.00,SCT,,0.00,466.0,WeatherDisplay:10.37,2013-03-06 18:35:00,
2013-03-06 12:40:00,42.0,24.2,30.42,SE,128,2.3,2.3,49,0.00,BKN,,0.00,330.0,WeatherDisplay:10.37,2013-03-06 18:40:00,
2013-03-06 12:45:00,41.8,24.5,30.42,South,176,6.9,6.9,50,0.00,SCT,,0.00,457.0,WeatherDisplay:10.37,2013-03-06 18:45:00,
2013-03-06 12:50:00,41.9,24.6,30.42,SSE,167,4.0,4.0,50,0.00,SCT,,0.00,455.0,WeatherDisplay:10.37,2013-03-06 18:50:00,
2013-03-06 12:55:00,42.1,25.3,30.42,SE,131,3.5,3.5,51,0.00,SCT,,0.00,450.0,WeatherDisplay:10.37,2013-03-06 18:55:00,
2013-03-06 13:00:00,42.3,25.0,30.42,SSE,161,5.0,5.0,50,0.00,BKN,,0.00,306.0,WeatherDisplay:10.37,2013-03-06 19:00:00,
2013-03-06 13:05:00,42.4,24.6,30.41,South,186,3.5,3.5,49,0.00,SCT,,0.00,476.0,WeatherDisplay:10.37,2013-03-06 19:05:00,
2013-03-06 13:10:00,42.4,25.1,30.41,South,171,6.9,6.9,50,0.00,SCT,,0.00,448.0,WeatherDisplay:10.37,2013-03-06 19:10:00,
2013-03-06 13:15:00,42.4,25.1,30.41,SE,144,6.9,6.9,50,0.00,SCT,,0.00,454.0,WeatherDisplay:10.37,2013-03-06 19:15:00,
2013-03-06 13:20:00,42.3,25.0,30.40,SSE,154,6.9,6.9,50,0.00,SCT,,0.00,434.0,WeatherDisplay:10.37,2013-03-06 19:20:00,
2013-03-06 13:25:00,42.5,25.1,30.40,ESE,119,3.5,3.5,50,0.00,SCT,,0.00,373.0,WeatherDisplay:10.37,2013-03-06 19:25:00,
2013-03-06 13:30:00,42.7,25.3,30.40,South,181,5.8,5.8,50,0.00,SCT,,0.00,552.0,WeatherDisplay:10.37,2013-03-06 19:30:00,
2013-03-06 13:35:00,43.1,24.2,30.40,South,182,7.0,7.0,47,0.00,SCT,,0.00,443.0,WeatherDisplay:10.37,2013-03-06 19:35:00,
2013-03-06 13:40:00,43.4,25.5,30.39,SSE,159,4.0,4.0,49,0.00,SCT,,0.00,367.0,WeatherDisplay:10.37,2013-03-06 19:40:00,
2013-03-06 13:45:00,43.4,25.0,30.39,SE,146,4.6,4.6,48,0.00,BKN,,0.00,327.0,WeatherDisplay:10.37,2013-03-06 19:45:00,
2013-03-06 13:50:00,43.4,25.0,30.39,South,170,6.9,6.9,48,0.00,BKN,,0.00,341.0,WeatherDisplay:10.37,2013-03-06 19:50:00,
2013-03-06 13:55:00,43.4,25.0,30.38,SSE,164,3.5,3.5,48,0.00,BKN,,0.00,327.0,WeatherDisplay:10.37,2013-03-06 19:55:00,
2013-03-06 14:00:00,43.4,25.0,30.38,SW,224,9.2,9.2,48,0.00,BKN,,0.00,309.0,WeatherDisplay:10.37,2013-03-06 20:00:00,
2013-03-06 14:05:00,43.4,25.5,30.37,SE,132,3.5,3.5,49,0.00,BKN,,0.00,316.0,WeatherDisplay:10.37,2013-03-06 20:05:00,
2013-03-06 14:10:00,43.4,25.5,30.37,South,176,4.6,4.6,49,0.00,BKN,,0.00,336.0,WeatherDisplay:10.37,2013-03-06 20:10:00,
2013-03-06 14:15:00,43.6,26.2,30.37,South,191,4.6,4.6,50,0.00,BKN,,0.00,329.0,WeatherDisplay:10.37,2013-03-06 20:15:00,
2013-03-06 14:20:00,43.7,26.3,30.36,SE,125,7.0,7.0,50,0.00,SCT,,0.00,503.0,WeatherDisplay:10.37,2013-03-06 20:20:00,
2013-03-06 14:25:00,44.2,27.2,30.36,SE,132,6.0,6.0,51,0.00,CLR,,0.00,673.0,WeatherDisplay:10.37,2013-03-06 20:25:00,
2013-03-06 14:30:00,44.9,26.9,30.36,South,185,6.9,6.9,49,0.00,CLR,,0.00,710.0,WeatherDisplay:10.37,2013-03-06 20:30:00,
2013-03-06 14:35:00,45.6,27.5,30.35,SW,220,5.8,5.8,49,0.00,CLR,,0.00,708.0,WeatherDisplay:10.37,2013-03-06 20:35:00,
2013-03-06 14:40:00,46.2,28.6,30.35,SE,135,8.1,8.1,50,0.00,CLR,,0.00,659.0,WeatherDisplay:10.37,2013-03-06 20:40:00,
2013-03-06 14:45:00,46.6,28.4,30.35,SE,131,6.0,6.0,49,0.00,CLR,,0.00,522.0,WeatherDisplay:10.37,2013-03-06 20:45:00,
2013-03-06 14:50:00,46.6,27.4,30.35,SE,138,7.0,7.0,47,0.00,FEW,,0.00,482.0,WeatherDisplay:10.37,2013-03-06 20:50:00,
2013-03-06 14:55:00,46.7,27.5,30.34,SE,126,6.9,6.9,47,0.00,FEW,,0.00,459.0,WeatherDisplay:10.37,2013-03-06 20:55:00,
2013-03-06 15:00:00,46.6,26.4,30.34,East,96,4.6,4.6,45,0.00,SCT,,0.00,397.0,WeatherDisplay:10.37,2013-03-06 21:00:00,
2013-03-06 15:05:00,46.6,27.4,30.34,ESE,102,4.6,4.6,47,0.00,FEW,,0.00,403.0,WeatherDisplay:10.37,2013-03-06 21:05:00,
2013-03-06 15:10:00,46.6,27.4,30.34,ESE,102,6.9,6.9,47,0.00,SCT,,0.00,343.0,WeatherDisplay:10.37,2013-03-06 21:10:00,
2013-03-06 15:15:00,46.4,26.7,30.33,ESE,123,8.0,8.0,46,0.00,SCT,,0.00,320.0,WeatherDisplay:10.37,2013-03-06 21:15:00,
2013-03-06 15:20:00,46.3,26.6,30.33,ESE,114,8.1,8.1,46,0.00,SCT,,0.00,322.0,WeatherDisplay:10.37,2013-03-06 21:20:00,
2013-03-06 15:25:00,46.1,25.9,30.33,ESE,119,8.0,8.0,45,0.00,SCT,,0.00,366.0,WeatherDisplay:10.37,2013-03-06 21:25:00,
2013-03-06 15:30:00,46.0,25.8,30.33,ESE,120,8.1,8.1,45,0.00,FEW,,0.00,346.0,WeatherDisplay:10.37,2013-03-06 21:30:00,
2013-03-06 15:35:00,46.2,26.0,30.32,ESE,111,4.6,4.6,45,0.00,CLR,,0.00,425.0,WeatherDisplay:10.37,2013-03-06 21:35:00,
2013-03-06 15:40:00,46.5,26.8,30.32,SE,128,5.8,5.8,46,0.00,FEW,,0.00,339.0,WeatherDisplay:10.37,2013-03-06 21:40:00,
2013-03-06 15:45:00,46.8,26.6,30.31,ESE,118,6.9,6.9,45,0.00,CLR,,0.00,362.0,WeatherDisplay:10.37,2013-03-06 21:45:00,
2013-03-06 15:50:00,46.9,27.2,30.31,ESE,123,5.0,5.0,46,0.00,SCT,,0.00,262.0,WeatherDisplay:10.37,2013-03-06 21:50:00,
2013-03-06 15:55:00,46.9,26.6,30.31,ESE,110,6.9,6.9,45,0.00,SCT,,0.00,276.0,WeatherDisplay:10.37,2013-03-06 21:55:00,
2013-03-06 16:00:00,46.7,26.5,30.31,SSE,155,6.9,6.9,45,0.00,SCT,,0.00,232.0,WeatherDisplay:10.37,2013-03-06 22:00:00,
2013-03-06 16:05:00,46.7,26.5,30.30,SSE,151,3.5,3.5,45,0.00,SCT,,0.00,248.0,WeatherDisplay:10.37,2013-03-06 22:05:00,
2013-03-06 16:10:00,46.7,26.5,30.30,SE,127,8.1,8.1,45,0.00,SCT,,0.00,239.0,WeatherDisplay:10.37,2013-03-06 22:10:00,
2013-03-06 16:15:00,46.8,26.6,30.30,SE,134,5.8,5.8,45,0.00,SCT,,0.00,214.0,WeatherDisplay:10.37,2013-03-06 22:15:00,
2013-03-06 16:20:00,46.7,27.0,30.30,SE,132,8.1,8.1,46,0.00,SCT,,0.00,237.0,WeatherDisplay:10.37,2013-03-06 22:20:00,
2013-03-06 16:25:00,46.5,26.3,30.29,South,183,9.2,9.2,45,0.00,SCT,,0.00,236.0,WeatherDisplay:10.37,2013-03-06 22:25:00,
2013-03-06 16:30:00,46.4,26.2,30.29,ESE,115,6.9,6.9,45,0.00,FEW,,0.00,244.0,WeatherDisplay:10.37,2013-03-06 22:30:00,
2013-03-06 16:35:00,46.4,26.7,30.29,SSE,148,11.5,11.5,46,0.00,FEW,,0.00,234.0,WeatherDisplay:10.37,2013-03-06 22:35:00,
2013-03-06 16:40:00,46.3,26.1,30.29,ESE,111,4.6,4.6,45,0.00,FEW,,0.00,229.0,WeatherDisplay:10.37,2013-03-06 22:40:00,
2013-03-06 16:45:00,46.3,25.6,30.29,SSE,150,7.0,7.0,44,0.00,FEW,,0.00,209.0,WeatherDisplay:10.37,2013-03-06 22:45:00,
2013-03-06 16:50:00,46.3,26.1,30.28,SSE,160,8.1,8.1,45,0.00,SCT,,0.00,192.0,WeatherDisplay:10.37,2013-03-06 22:50:00,
2013-03-06 16:55:00,46.2,25.5,30.28,SE,130,8.0,8.0,44,0.00,SCT,,0.00,135.0,WeatherDisplay:10.37,2013-03-06 22:55:00,
2013-03-06 17:00:00,46.0,24.7,30.28,ESE,105,11.5,11.5,43,0.00,SCT,,0.00,118.0,WeatherDisplay:10.37,2013-03-06 23:00:00,
2013-03-06 17:05:00,45.8,24.5,30.27,ESE,120,6.9,6.9,43,0.00,BKN,,0.00,104.0,WeatherDisplay:10.37,2013-03-06 23:05:00,
2013-03-06 17:10:00,45.5,24.3,30.27,East,93,5.8,5.8,43,0.00,BKN,,0.00,93.0,WeatherDisplay:10.37,2013-03-06 23:10:00,
2013-03-06 17:15:00,45.2,24.6,30.27,South,178,4.6,4.6,44,0.00,BKN,,0.00,86.0,WeatherDisplay:10.37,2013-03-06 23:15:00,
2013-03-06 17:20:00,45.0,24.4,30.27,East,98,4.6,4.6,44,0.00,BKN,,0.00,84.0,WeatherDisplay:10.37,2013-03-06 23:20:00,
2013-03-06 17:25:00,44.8,24.7,30.27,SE,142,6.9,6.9,45,0.00,SCT,,0.00,77.0,WeatherDisplay:10.37,2013-03-06 23:25:00,
2013-03-06 17:30:00,44.6,24.5,30.27,SE,134,8.1,8.1,45,0.00,SCT,,0.00,70.0,WeatherDisplay:10.37,2013-03-06 23:30:00,
2013-03-06 17:35:00,44.4,24.4,30.27,ESE,111,6.9,6.9,45,0.00,BKN,,0.00,63.0,WeatherDisplay:10.37,2013-03-06 23:35:00,
2013-03-06 17:40:00,44.2,24.7,30.26,SSE,164,9.2,9.2,46,0.00,BKN,,0.00,56.0,WeatherDisplay:10.37,2013-03-06 23:40:00,
2013-03-06 17:45:00,44.1,25.1,30.26,SE,125,4.6,4.6,47,0.00,BKN,,0.00,47.0,WeatherDisplay:10.37,2013-03-06 23:45:00,
2013-03-06 17:50:00,44.0,25.0,30.26,ESE,107,10.4,10.4,47,0.00,BKN,,0.00,39.0,WeatherDisplay:10.37,2013-03-06 23:50:00,
2013-03-06 17:55:00,43.9,24.9,30.26,ESE,119,4.0,4.0,47,0.00,BKN,,0.00,28.0,WeatherDisplay:10.37,2013-03-06 23:55:00,
2013-03-06 18:00:00,43.8,25.4,30.26,ESE,115,3.0,3.0,48,0.00,BKN,,0.00,21.0,WeatherDisplay:10.37,2013-03-07 00:00:00,
2013-03-06 18:05:00,43.8,25.4,30.26,ESE,102,3.5,3.5,48,0.00,BKN,,0.00,19.0,WeatherDisplay:10.37,2013-03-07 00:05:00,
2013-03-06 18:10:00,43.7,25.3,30.25,East,80,3.5,3.5,48,0.00,BKN,,0.00,14.0,WeatherDisplay:10.37,2013-03-07 00:10:00,
2013-03-06 18:15:00,43.7,25.3,30.25,East,81,6.0,6.0,48,0.00,BKN,,0.00,11.0,WeatherDisplay:10.37,2013-03-07 00:15:00,
2013-03-06 18:20:00,43.6,25.2,30.26,ESE,103,3.5,3.5,48,0.00,SCT,,0.00,9.0,WeatherDisplay:10.37,2013-03-07 00:20:00,
2013-03-06 18:25:00,43.6,25.2,30.26,SE,135,4.6,4.6,48,0.00,CLR,,0.00,7.0,WeatherDisplay:10.37,2013-03-07 00:25:00,
2013-03-06 18:30:00,43.5,25.1,30.26,ESE,105,3.5,3.5,48,0.00,CLR,,0.00,0.0,WeatherDisplay:10.37,2013-03-07 00:30:00,
2013-03-06 18:35:00,43.5,25.1,30.26,ESE,116,3.5,3.5,48,0.00,CLR,,0.00,0.0,WeatherDisplay:10.37,2013-03-07 00:35:00,
2013-03-06 18:40:00,43.4,24.5,30.26,ESE,114,4.0,4.0,47,0.00,CLR,,0.00,0.0,WeatherDisplay:10.37,2013-03-07 00:40:00,
2013-03-06 18:45:00,43.3,24.4,30.25,SE,139,5.8,5.8,47,0.00,CLR,,0.00,0.0,WeatherDisplay:10.37,2013-03-07 00:45:00,
2013-03-06 18:50:00,43.3,24.9,30.25,ESE,120,4.6,4.6,48,0.00,CLR,,0.00,0.0,WeatherDisplay:10.37,2013-03-07 00:50:00,
2013-03-06 18:55:00,43.1,24.7,30.25,ESE,119,4.6,4.6,48,0.00,CLR,,0.00,0.0,WeatherDisplay:10.37,2013-03-07 00:55:00,
2013-03-06 19:00:00,43.0,24.6,30.25,ESE,119,4.6,4.6,48,0.00,CLR,,0.00,0.0,WeatherDisplay:10.37,2013-03-07 01:00:00,
2013-03-06 19:06:00,42.9,24.5,30.25,SE,136,5.8,5.8,48,0.00,CLR,,0.00,0.0,WeatherDisplay:10.37,2013-03-07 01:06:00,
2013-03-06 19:11:00,42.8,24.4,30.25,SE,144,7.0,7.0,48,0.00,CLR,,0.00,0.0,WeatherDisplay:10.37,2013-03-07 01:11:00,
2013-03-06 19:16:00,42.7,24.4,30.25,SSE,150,4.6,4.6,48,0.00,CLR,,0.00,0.0,WeatherDisplay:10.37,2013-03-07 01:16:00,
2013-03-06 19:21:00,42.7,24.4,30.25,SE,126,6.9,6.9,48,0.00,CLR,,0.00,0.0,WeatherDisplay:10.37,2013-03-07 01:21:00,
2013-03-06 19:26:00,42.5,24.2,30.25,SE,141,3.5,3.5,48,0.00,CLR,,0.00,0.0,WeatherDisplay:10.37,2013-03-07 01:26:00,
2013-03-06 19:31:00,42.4,24.1,30.25,ESE,103,6.9,6.9,48,0.00,CLR,,0.00,0.0,WeatherDisplay:10.37,2013-03-07 01:31:00,
2013-03-06 19:36:00,42.2,23.9,30.25,SSE,149,4.6,4.6,48,0.00,CLR,,0.00,0.0,WeatherDisplay:10.37,2013-03-07 01:36:00,
2013-03-06 19:41:00,41.9,24.1,30.25,ESE,104,4.6,4.6,49,0.00,CLR,,0.00,0.0,WeatherDisplay:10.37,2013-03-07 01:41:00,
2013-03-06 19:46:00,41.7,23.9,30.25,SSE,161,3.5,3.5,49,0.00,CLR,,0.00,0.0,WeatherDisplay:10.37,2013-03-07 01:46:00,
2013-03-06 19:51:00,41.6,23.8,30.25,SE,142,4.6,4.6,49,0.00,CLR,,0.00,0.0,WeatherDisplay:10.37,2013-03-07 01:51:00,
2013-03-06 19:56:00,41.4,23.6,30.25,SE,130,4.6,4.6,49,0.00,CLR,,0.00,0.0,WeatherDisplay:10.37,2013-03-07 01:56:00,
2013-03-06 20:01:00,41.2,23.5,30.25,ESE,109,3.5,3.5,49,0.00,CLR,,0.00,0.0,WeatherDisplay:10.37,2013-03-07 02:01:00,
2013-03-06 20:06:00,41.1,23.9,30.25,ESE,117,3.5,3.5,50,0.00,CLR,,0.00,0.0,WeatherDisplay:10.37,2013-03-07 02:06:00,
2013-03-06 20:11:00,40.9,23.7,30.25,ESE,111,2.3,0.0,50,0.00,CLR,,0.00,0.0,WeatherDisplay:10.37,2013-03-07 02:11:00,
2013-03-06 20:16:00,40.8,23.6,30.25,ESE,111,1.2,1.2,50,0.00,CLR,,0.00,0.0,WeatherDisplay:10.37,2013-03-07 02:16:00,
2013-03-06 20:21:00,40.5,23.8,30.25,SE,134,3.5,3.5,51,0.00,CLR,,0.00,0.0,WeatherDisplay:10.37,2013-03-07 02:21:00,
2013-03-06 20:26:00,40.2,23.5,30.25,SE,134,2.3,2.3,51,0.00,CLR,,0.00,0.0,WeatherDisplay:10.37,2013-03-07 02:26:00,
2013-03-06 20:31:00,40.0,23.8,30.24,SE,126,3.5,3.5,52,0.00,CLR,,0.00,0.0,WeatherDisplay:10.37,2013-03-07 02:31:00,
2013-03-06 20:36:00,39.7,23.5,30.24,SE,132,2.3,2.3,52,0.00,CLR,,0.00,0.0,WeatherDisplay:10.37,2013-03-07 02:36:00,
2013-03-06 20:41:00,39.5,23.8,30.25,ESE,111,1.2,1.2,53,0.00,CLR,,0.00,0.0,WeatherDisplay:10.37,2013-03-07 02:41:00,
2013-03-06 20:46:00,39.3,23.6,30.24,ESE,111,2.3,2.3,53,0.00,CLR,,0.00,0.0,WeatherDisplay:10.37,2013-03-07 02:46:00,
2013-03-06 20:51:00,39.1,23.4,30.24,ESE,117,5.8,5.8,53,0.00,CLR,,0.00,0.0,WeatherDisplay:10.37,2013-03-07 02:51:00,
2013-03-06 20:56:00,39.0,23.3,30.24,ESE,113,3.5,3.5,53,0.00,CLR,,0.00,0.0,WeatherDisplay:10.37,2013-03-07 02:56:00,
2013-03-06 21:01:00,39.0,23.7,30.24,SE,126,2.3,2.3,54,0.00,CLR,,0.00,0.0,WeatherDisplay:10.37,2013-03-07 03:01:00,
2013-03-06 21:06:00,39.0,23.7,30.24,ESE,111,2.3,2.3,54,0.00,CLR,,0.00,0.0,WeatherDisplay:10.37,2013-03-07 03:06:00,
2013-03-06 21:11:00,39.0,23.7,30.24,SE,142,3.5,3.5,54,0.00,CLR,,0.00,0.0,WeatherDisplay:10.37,2013-03-07 03:11:00,
2013-03-06 21:16:00,39.0,23.7,30.24,SE,125,3.5,3.5,54,0.00,CLR,,0.00,0.0,WeatherDisplay:10.37,2013-03-07 03:16:00,
2013-03-06 21:21:00,39.1,24.3,30.24,SE,134,2.3,2.3,55,0.00,CLR,,0.00,0.0,WeatherDisplay:10.37,2013-03-07 03:21:00,
2013-03-06 21:26:00,39.1,24.3,30.25,East,94,3.5,3.5,55,0.00,CLR,,0.00,0.0,WeatherDisplay:10.37,2013-03-07 03:26:00,
2013-03-06 21:31:00,39.0,24.6,30.24,ESE,119,8.1,8.1,56,0.00,CLR,,0.00,0.0,WeatherDisplay:10.37,2013-03-07 03:31:00,
2013-03-06 21:36:00,39.0,24.6,30.24,East,101,5.8,5.8,56,0.00,CLR,,0.00,0.0,WeatherDisplay:10.37,2013-03-07 03:36:00,
2013-03-06 21:41:00,38.9,24.5,30.24,East,98,6.0,6.0,56,0.00,CLR,,0.00,0.0,WeatherDisplay:10.37,2013-03-07 03:41:00,
2013-03-06 21:46:00,38.9,24.5,30.24,East,85,2.3,2.3,56,0.00,CLR,,0.00,0.0,WeatherDisplay:10.37,2013-03-07 03:46:00,
2013-03-06 21:51:00,38.8,24.4,30.25,ESE,111,3.5,3.5,56,0.00,CLR,,0.00,0.0,WeatherDisplay:10.37,2013-03-07 03:51:00,
2013-03-06 21:56:00,38.8,24.4,30.25,SE,134,3.5,3.5,56,0.00,CLR,,0.00,0.0,WeatherDisplay:10.37,2013-03-07 03:56:00,
2013-03-06 22:01:00,38.6,24.7,30.25,ESE,103,3.5,3.5,57,0.00,CLR,,0.00,0.0,WeatherDisplay:10.37,2013-03-07 04:01:00,
2013-03-06 22:06:00,38.5,24.6,30.25,East,100,6.9,6.9,57,0.00,CLR,,0.00,0.0,WeatherDisplay:10.37,2013-03-07 04:06:00,
2013-03-06 22:11:00,38.3,24.8,30.25,East,94,2.3,2.3,58,0.00,CLR,,0.00,0.0,WeatherDisplay:10.37,2013-03-07 04:11:00,
2013-03-06 22:16:00,38.2,24.7,30.24,ESE,115,5.8,5.8,58,0.00,CLR,,0.00,0.0,WeatherDisplay:10.37,2013-03-07 04:16:00,
2013-03-06 22:21:00,38.1,24.6,30.24,ESE,116,3.5,3.5,58,0.00,CLR,,0.00,0.0,WeatherDisplay:10.37,2013-03-07 04:21:00,
2013-03-06 22:26:00,38.0,24.5,30.24,ESE,110,4.6,4.6,58,0.00,CLR,,0.00,0.0,WeatherDisplay:10.37,2013-03-07 04:26:00,
2013-03-06 22:31:00,37.8,24.3,30.24,ESE,110,4.6,4.6,58,0.00,CLR,,0.00,0.0,WeatherDisplay:10.37,2013-03-07 04:31:00,
2013-03-06 22:36:00,37.7,24.2,30.24,ESE,107,5.8,5.8,58,0.00,CLR,,0.00,0.0,WeatherDisplay:10.37,2013-03-07 04:36:00,
2013-03-06 22:41:00,37.6,24.6,30.24,ESE,111,4.6,4.6,59,0.00,CLR,,0.00,0.0,WeatherDisplay:10.37,2013-03-07 04:41:00,
2013-03-06 22:46:00,37.5,24.5,30.23,ESE,114,3.5,3.6,59,0.00,CLR,,0.00,0.0,WeatherDisplay:10.37,2013-03-07 04:46:00,
2013-03-06 22:51:00,37.3,24.7,30.24,SE,144,6.9,6.9,60,0.00,CLR,,0.00,0.0,WeatherDisplay:10.37,2013-03-07 04:51:00,
2013-03-06 22:56:00,37.2,24.6,30.24,ESE,117,3.5,3.5,60,0.00,CLR,,0.00,0.0,WeatherDisplay:10.37,2013-03-07 04:56:00,
2013-03-06 23:00:00,37.0,24.4,30.24,SE,128,2.3,2.3,60,0.00,CLR,,0.00,0.0,WeatherDisplay:10.37,2013-03-07 05:00:00,
2013-03-06 23:05:00,36.8,24.6,30.24,South,173,4.6,4.6,61,0.00,CLR,,0.00,0.0,WeatherDisplay:10.37,2013-03-07 05:05:00,
2013-03-06 23:10:00,36.6,24.8,30.24,ESE,110,5.8,5.8,62,0.00,CLR,,0.00,0.0,WeatherDisplay:10.37,2013-03-07 05:10:00,
2013-03-06 23:15:00,36.4,24.6,30.24,ESE,122,3.5,3.5,62,0.00,CLR,,0.00,0.0,WeatherDisplay:10.37,2013-03-07 05:15:00,
2013-03-06 23:20:00,36.2,24.4,30.24,ESE,106,3.5,3.5,62,0.00,CLR,,0.00,0.0,WeatherDisplay:10.37,2013-03-07 05:20:00,
2013-03-06 23:25:00,36.1,24.7,30.23,ESE,115,5.0,5.0,63,0.00,CLR,,0.00,0.0,WeatherDisplay:10.37,2013-03-07 05:25:00,
2013-03-06 23:30:00,35.9,24.5,30.23,ESE,117,5.8,5.8,63,0.00,CLR,,0.00,0.0,WeatherDisplay:10.37,2013-03-07 05:30:00,
2013-03-06 23:35:00,35.7,24.7,30.23,ESE,117,4.6,4.6,64,0.00,CLR,,0.00,0.0,WeatherDisplay:10.37,2013-03-07 05:35:00,
2013-03-06 23:40:00,35.6,24.6,30.23,East,94,6.9,6.9,64,0.00,CLR,,0.00,0.0,WeatherDisplay:10.37,2013-03-07 05:40:00,
2013-03-06 23:45:00,35.5,24.5,30.23,SE,141,5.8,5.8,64,0.00,CLR,,0.00,0.0,WeatherDisplay:10.37,2013-03-07 05:45:00,
2013-03-06 23:50:00,35.5,24.9,30.23,East,101,6.0,6.0,65,0.00,CLR,,0.00,0.0,WeatherDisplay:10.37,2013-03-07 05:50:00,
2013-03-06 23:55:00,35.5,24.9,30.23,SE,130,2.3,2.3,65,0.00,CLR,,0.00,0.0,WeatherDisplay:10.37,2013-03-07 05:55:00,